Regional Weather Roundup
Issued by NWS

Home | Current Version | Previous Version | Graphics & Text | Print | Product List | Glossary On
Versions: 1 2 3 4 5 6 7 8 9 10 11 12 13 14 15 16 17 18 19 20 21 22 23 24 25 26 27 28 29 30 31 32 33 34 35 36 37 38 39 40 41 42 43 44 45 46 47 48 49 50
000
ASUS43 KMKX 190300
RWRWI

WISCONSIN REGIONAL WEATHER ROUNDUP
NATIONAL WEATHER SERVICE MILWAUKEE/SULLIVAN WI
900 PM CST SAT FEB 18 2017

NOTE: "FAIR" INDICATES FEW OR NO CLOUDS BELOW 12,000 FEET WITH NO
SIGNIFICANT WEATHER AND/OR OBSTRUCTIONS TO VISIBILITY.

WIZ001-002-006>008-014>016-023>028-190400-
NORTHWEST WISCONSIN

CITY           SKY/WX    TMP DP  RH WIND       PRES   REMARKS
SUPERIOR ARPT  MOCLDY    44  29  55 W5        29.78R
ASHLAND        PTCLDY    43  29  57 W9        29.78R
HAYWARD        PTCLDY    34  27  75 CALM      29.81R
SIREN          CLOUDY    47  35  63 W7        29.81R
CUMBERLAND     CLOUDY    37  32  81 CALM      29.82R
RICE LAKE      CLOUDY    37  32  81 CALM      29.84R
CHETEK         CLOUDY    38  33  83 CALM      29.82S
LADYSMITH      MOCLDY    43  33  66 W3        29.83R
EAU CLAIRE     NOT AVBL
MENOMONIE      PTCLDY    38  32  80 CALM      29.84R
NEW RICHMOND   PTCLDY    40  32  73 CALM      29.83R
OSCEOLA        CLOUDY    37  32  80 CALM      29.86R
$$

WIZ003>005-009-010-017-018-190400-
NORTH CENTRAL WISCONSIN

CITY           SKY/WX    TMP DP  RH WIND       PRES   REMARKS
MANITOWISH WTR CLOUDY    42  28  58 W5        29.75R
ARBOR VITAE    PTCLDY    43  28  56 W3        29.76S
WOODRUFF       PTCLDY    43  28  56 W3        29.76S
RHINELANDER    PTCLDY    41  30  65 W9        29.77R
EAGLE RIVER    CLOUDY    44  26  50 W8        29.74S
LAND O LAKES   PTCLDY    45  28  50 W5        29.76R
PHILLIPS       CLOUDY    42  31  65 CALM      29.78R
TOMAHAWK       PTCLDY    43  29  59 W6        29.78R
MEDFORD        CLOUDY    40  31  71 W5        29.80R
MERRILL        NOT AVBL
$$

WIZ029-030-035-036-043>047-190400-
CENTRAL WISCONSIN

CITY           SKY/WX    TMP DP  RH WIND       PRES   REMARKS
WAUSAU         PTCLDY    42  31  64 CALM      29.79R
MOSINEE        MOCLDY    43  32  65 W6        29.81R
MARSHFIELD     PTCLDY    43  31  62 W8        29.80R
STEVENS POINT  CLOUDY    44  29  56 W5        29.81R
WAUPACA        PTCLDY    41  30  63 CALM      29.80R
WAUTOMA        MOCLDY    36  29  75 CALM      29.82R
WISC RAPIDS    MOCLDY    42  29  59 W5        29.83R
CAMP DOUGLAS   NOT AVBL
$$

WIZ011>013-019>022-031-037>040-048>050-190400-
NORTHEAST WISCONSIN

CITY           SKY/WX    TMP DP  RH WIND       PRES   REMARKS
ANTIGO         PTCLDY    38  31  74 W3        29.78R
SHAWANO        CLOUDY    46  32  58 SW5       29.78R
OCONTO         PTCLDY    41  30  64 W6        29.75R
STURGEON BAY   PTCLDY    46  32  58 W12       29.75R
GREEN BAY      CLOUDY    44  33  65 W9        29.78R
MANITOWOC      NOT AVBL
APPLETON       PTCLDY    43  27  52 W9        29.77R
CLINTONVILLE   CLOUDY    43  30  61 W3        29.79R
OSHKOSH        MOCLDY    45  31  58 CALM      29.79R
$$

WIZ032>034-041-042-053>061-190400-
SOUTHWEST WISCONSIN

CITY           SKY/WX    TMP DP  RH WIND       PRES   REMARKS
LA CROSSE      CLEAR     39  31  72 CALM      29.84R
SPARTA         PTCLDY    32  28  83 CALM      29.85R
VIROQUA        CLEAR     45  31  57 CALM      29.83R
BOSCOBEL       CLEAR     37  33  85 CALM      29.84R
PRAIRIE DU CHI CLEAR     39  34  82 CALM      29.84R
PLATTEVILLE    CLEAR     48  42  78 NW6       29.83R
$$

WIZ056-057-062-063-064-067-068-190400-
SOUTH CENTRAL WISCONSIN

CITY           SKY/WX    TMP DP  RH WIND       PRES   REMARKS
REEDSBURG      PTCLDY    38  32  79 CALM      29.83R
BARABOO/DELLS  PTCLDY    39  28  65 CALM      29.81R
LONE ROCK      NOT AVBL
MINERAL POINT  CLEAR     48  39  71 CALM      29.82R
MADISON        PTCLDY    36  32  85 CALM      29.82R
MIDDLETON      CLEAR     36  35  94 CALM      29.83R
WATERTOWN      CLEAR     33  30  88 CALM      29.80R
MONROE         CLEAR     54  39  58 W8        29.81R
JANESVILLE     CLEAR     41  37  87 CALM      29.81R
$$

WIZ051-052-058>065-066-070>072-190400-
SOUTHEAST WISCONSIN

CITY           SKY/WX    TMP DP  RH WIND       PRES   REMARKS
MILWAUKEE      CLEAR     44  35  70 CALM      29.80R
WAUKESHA       CLEAR     39  36  87 W3        29.81R
MILWAUKEE/TIMM CLEAR     43  36  75 CALM      29.80R
RACINE         CLEAR     49  37  63 NW3       29.81R
KENOSHA        CLEAR     40  34  79 W6        29.80R
FOND DU LAC    PTCLDY    47  28  47 W7        29.80R
SHEBOYGAN      CLOUDY    39  30  70 CALM      29.78R
WEST BEND      CLEAR     34  32  93 CALM      29.79R
JUNEAU         CLEAR     43  33  67 W3        29.82R
$$

LSZ147-162-190400-
LAKE SUPERIOR

STATION/POSITION TIME  TEMP    WIND        PRES    WAVE
                       AIR SEA DIR/SP/G            HT/PER
                 (UTC) (F)     (DEG/KT/KT) (MB)    (FT/S)
DEVILS ISLAND    0200   41     240/ 20/ 22 1006.8R
PORT WING        0240   49     240/ 11/ 14 1008.8R
SAXON HARBOR     0240   46     210/  5/  8 1007.8R
$$

LMZ867-665-643>646-190400-
LAKE MICHIGAN

STATION/POSITION TIME  TEMP    WIND        PRES    WAVE
                       AIR SEA DIR/SP/G            HT/PER
                 (UTC) (F)     (DEG/KT/KT) (MB)    (FT/S)
CHAMBERS ISLAND  0240   45     210/  6/  9 1006.4R
NORTHPORT PIER   0230   47     240/  3/  6 1006.4R
SISTER BAY       0135   42     270/ 12/ 13   N/A
KEWAUNEE LAKESHO 0230   48     290/  6/ 10 1006.8R
SHEBOYGAN LAKESH 0200   51     240/  4/  5 1007.9R
PORT WASHINGTON  0230   42     270/  3/  4 1009.5R
MILWAUKEE LAKESH 0230   54     300/  6/  7   N/A
KENOSHA   LAKESH 0200   54        CALM     1008.5
$$

TC  - TEMPERATURE IN CELSIUS
VSB - VISIBILITY IN STATUTE MILES
WCI - WIND CHILL INDEX
HX  - HEAT INDEX





USA.gov is the U.S. government's official web portal to all federal, state and local government web resources and services.